Regional Weather Roundup
Issued by NWS

Home | Current Version | Previous Version | Text Only | Print | Product List | Glossary On
Versions: 1 2 3 4 5 6 7 8 9 10 11 12 13 14 15 16 17 18 19 20 21 22 23 24 25 26 27 28 29 30 31 32 33 34 35 36 37 38 39 40 41 42 43 44 45 46 47 48 49 50
277
ASUS43 KDTX 202101
RWRMI
MICHIGAN HOURLY REGIONAL WEATHER ROUNDUP
NATIONAL WEATHER SERVICE DETROIT/PONTIAC MI
500 PM EDT FRI OCT 20 2017

NOTE: "FAIR" INDICATES FEW OR NO CLOUDS BELOW 12,000 FEET WITH NO
SIGNIFICANT WEATHER AND/OR OBSTRUCTION TO VISIBILITY.

MIZ047>049-052>055-059>063-066>070-074>076-081>083-202200-
SOUTHEAST LOWER MICHIGAN

CITY           SKY/WX    TMP DP  RH WIND       PRES   REMARKS
ADRIAN         SUNNY     75  49  39 SW10      30.17F
ALMA           SUNNY     76  46  34 SW13G20   30.11S
ANN ARBOR      SUNNY     74  47  38 S12       30.16F
BAD AXE        SUNNY     74  45  36 SW14G22   30.11F
CARO           SUNNY     74  48  39 S12       30.11F
DETROIT CITY   SUNNY     68  45  43 SW10      30.18F
DETROIT        MOSUNNY   71  47  42 S9        30.18F
FLINT          SUNNY     74  48  39 S13       30.14F
GROSSE ILE     SUNNY     67  43  41 SE7       30.17F
HILLSDALE      SUNNY     73  48  40 S7        30.16F
HOWELL         SUNNY     73  45  36 S9        30.15S

CITY           SKY/WX    TMP DP  RH WIND       PRES   REMARKS
JACKSON        SUNNY     73  51  46 S9        30.15F
LAMBERTVILLE   SUNNY     77  44  31 S6        30.17S
LANSING        SUNNY     75  50  41 S10       30.13F
LAPEER         FAIR      71  46  41 S13       30.15F
MASON          SUNNY     75  49  39 SW3       30.14F
MONROE         SUNNY     71  46  39 E6        30.17S
MT. CLEMENS    MOSUNNY   67  47  49 S10       30.16F
PONTIAC        PTSUNNY   72  46  39 S7        30.15F
PORT HOPE        N/A     76  49  38 VRB7G16   30.08F
PORT HURON     SUNNY     70  45  40 S12       30.17F
TRI CITIES     SUNNY     76  50  40 SW14      30.11F
MIDLAND        FAIR      77  49  37 SW9G18    30.08F
TROY           SUNNY     71  41  33 S8        30.19S
SAGINAW HB     SUNNY     75  46  35 SW15      30.10F
$$
MIZ043>046-050>051-056>058-064>065-071>073-077>080-202200-
SOUTHWEST LOWER MICHIGAN

CITY           SKY/WX    TMP DP  RH WIND       PRES   REMARKS
BATTLE CREEK   SUNNY     74  52  46 S15       30.15S
BENTON HARBOR  SUNNY     76  50  40 S7        30.10F
BIG RAPIDS     CLOUDY    75  44  32 SW10G20   30.08F
COLDWATER      SUNNY     74  47  38 S5        30.15F
FREMONT        FAIR      73  50  44 SW8       30.08F
HOLLAND        CLOUDY    76  51  41 SW10      30.10F
GRAND RAPIDS   PTSUNNY   76  50  40 SW10      30.11F
IONIA          FAIR      76  49  38 S13       30.11S
KALAMAZOO      CLOUDY    75  51  43 S12       30.13S
LUDINGTON      SUNNY     69  51  52 S7        30.04F
MARSHALL       SUNNY     74  51  44 S9        30.14S
MOUNT PLEASANT SUNNY     77  47  34 SW13G20   30.08F
MUSKEGON       PTSUNNY   72  51  47 S12G23    30.09F
SOUTH HAVEN    CLOUDY    78  47  33 S10G16    30.10F
$$
MIZ016>042-202200-
NORTHERN LOWER MICHIGAN

CITY           SKY/WX    TMP DP  RH WIND       PRES   REMARKS
ALPENA         SUNNY     77  51  40 SW9       30.04S
BEAVER ISLAND  SUNNY     70  53  54 SW13G23   29.99F
BELLAIRE       SUNNY     76  48  37 S8        30.01F
CADILLAC       SUNNY     75  46  34 S13       30.07S
CHARLEVOIX     SUNNY     75  52  43 S10G16    30.03S
FRANKFORT      SUNNY     73  52  48 SW8G17    30.02F
GAYLORD        SUNNY     75  47  36 SW14      30.04F
GRAYLING       SUNNY     75  46  35 S10G16    30.06F
HARBOR SPRINGS SUNNY     73  51  46 SW8G16    30.00F
HOUGHTON LAKE  SUNNY     73  49  42 SW12      30.07F
MANISTEE       SUNNY     76  52  43 VRB7      30.02F
OSCODA         SUNNY     74  49  41 S9G23     30.06F
PELLSTON       SUNNY     76  52  43 S9G18     30.01S
ROGERS CITY    SUNNY     77  48  36 SW8       30.02S
TRAVERSE CITY  PTSUNNY   78  49  35 SW10G22   30.00F
$$
MIZ007>008-015-202200-
EASTERN UPPER MICHIGAN

CITY           SKY/WX    TMP DP  RH WIND       PRES   REMARKS
KINROSS        SUNNY     70  53  54 SW9G20    30.00S
MACKINAC ISLAN SUNNY     70  52  52 SW7       30.00S
NEWBERRY       SUNNY     65  55  69 S16       29.96F
S. S. MARIE    SUNNY     70  53  54 S13       29.98F
MUNISING         N/A     72  54  53 S12G24    29.90S
$$
MIZ004>006-011>014-085-202200-
CENTRAL UPPER MICHIGAN

CITY           SKY/WX    TMP DP  RH WIND       PRES   REMARKS
MANISTIQUE     SUNNY     60  54  80 S7        29.98S
ESCANABA       SUNNY     63  56  78 S8        29.94F
MENOMINEE      SUNNY     72  51  47 SW13      29.96S
SAWYER-GWINN   SUNNY     75  48  38 S20G25    29.91S
$$
MIZ001>003-009>011-084-202200-
WESTERN UPPER MICHIGAN

CITY           SKY/WX    TMP DP  RH WIND       PRES   REMARKS
IRON MOUNTAIN  SUNNY     74  45  35 S12       29.91F
HOUGHTON       SUNNY     81  39  22 S13       29.81F
COPPER HARBOR    N/A     69  49  48 CALM      29.80F
IRONWOOD       SUNNY     76  41  28 S13G18    29.81F
$$

ABBREVIATIONS USED IN REMARKS
   TC - TEMPERATURE IN CELSIUS
  WCI - WIND CHILL INDEX
   HX - HEAT INDEX
  VSB - VISIBILITY





USA.gov is the U.S. government's official web portal to all federal, state and local government web resources and services.